�������l�o���
Date,Time,MP-1(��Sv/h),MP-2(��Sv/h),MP-3(��Sv/h),MP-4(��Sv/h),MP-5(��Sv/h),MP-6(��Sv/h),MP-7(��Sv/h),MP-8(��Sv/h),����,����(m/s),���J
2014/10/06,00:00,2.060,3.612,4.052,3.595,3.732,1.385,1.965,2.202,�k�k��,5.7,�L
2014/10/06,00:10,2.060,3.602,4.047,3.593,3.723,1.383,1.963,2.198,�k,4.9,�L
2014/10/06,00:20,2.057,3.607,4.043,3.595,3.722,1.385,1.962,2.198,�k�k��,6.0,�L
2014/10/06,00:30,2.060,3.612,4.052,3.597,3.727,1.387,1.962,2.198,�k,5.3,�L
2014/10/06,00:40,2.060,3.618,4.060,3.600,3.728,1.383,1.962,2.200,�k�k��,6.8,�L
2014/10/06,00:50,2.060,3.617,4.053,3.598,3.727,1.382,1.963,2.197,�k�k��,6.6,�L
2014/10/06,01:00,2.060,3.620,4.062,3.602,3.735,1.385,1.962,2.198,�k�k��,6.3,�L
2014/10/06,01:10,2.060,3.613,4.048,3.595,3.720,1.387,1.957,2.197,�k�k��,7.7,�L
2014/10/06,01:20,2.052,3.607,4.045,3.592,3.713,1.385,1.958,2.193,�k�k��,8.0,�L
2014/10/06,01:30,2.062,3.625,4.057,3.605,3.727,1.387,1.960,2.198,�k�k��,8.9,�L
2014/10/06,01:40,2.065,3.627,4.060,3.610,3.732,1.387,1.960,2.200,�k�k��,8.8,�L
2014/10/06,01:50,2.057,3.615,4.043,3.595,3.707,1.383,1.957,2.198,�k�k��,9.6,�L
2014/10/06,02:00,2.050,3.597,4.028,3.587,3.688,1.377,1.955,2.190,�k�k��,9.3,�L
2014/10/06,02:10,2.052,3.597,4.028,3.587,3.687,1.377,1.955,2.192,�k�k��,9.3,�L
2014/10/06,02:20,2.047,3.587,4.018,3.578,3.668,1.375,1.950,2.192,�k�k��,9.4,�L
2014/10/06,02:30,2.042,3.580,4.018,3.570,3.658,1.373,1.948,2.187,�k�k��,8.9,�L
2014/10/06,02:40,2.042,3.582,4.018,3.572,3.657,1.372,1.950,2.188,�k�k��,9.1,�L
2014/10/06,02:50,2.045,3.575,4.018,3.572,3.653,1.373,1.950,2.187,�k�k��,8.2,�L
2014/10/06,03:00,2.047,3.587,4.022,3.578,3.660,1.372,1.952,2.190,�k�k��,9.1,�L
2014/10/06,03:10,2.048,3.587,4.022,3.582,3.662,1.375,1.948,2.190,�k�k��,8.6,�L
2014/10/06,03:20,2.045,3.593,4.017,3.577,3.655,1.373,1.948,2.187,�k�k��,8.5,�L
2014/10/06,03:30,2.052,3.583,4.015,3.573,3.648,1.375,1.952,2.192,�k�k��,8.9,�L
2014/10/06,03:40,2.048,3.573,4.003,3.568,3.635,1.372,1.947,2.187,�k�k��,7.9,�L
2014/10/06,03:50,2.045,3.567,4.002,3.563,3.620,1.368,1.948,2.182,�k�k��,8.0,�L
2014/10/06,04:00,2.040,3.560,3.992,3.558,3.605,1.365,1.945,2.178,�k�k��,8.8,�L
2014/10/06,04:10,2.035,3.553,3.987,3.553,3.598,1.360,1.942,2.180,�k�k��,8.6,�L
2014/10/06,04:20,2.038,3.553,3.988,3.550,3.590,1.362,1.942,2.175,�k�k��,8.0,�L
2014/10/06,04:30,2.033,3.543,3.973,3.543,3.560,1.353,1.937,2.180,�k�k��,7.9,�L
2014/10/06,04:40,2.035,3.548,3.983,3.552,3.562,1.360,1.942,2.180,�k,6.4,�L
2014/10/06,04:50,2.037,3.548,3.977,3.553,3.562,1.358,1.943,2.180,�k,7.4,�L
2014/10/06,05:00,2.030,3.538,3.967,3.542,3.537,1.357,1.935,2.172,�k,7.1,�L
2014/10/06,05:10,2.023,3.513,3.943,3.522,3.495,1.348,1.927,2.162,�k�k��,6.7,�L
2014/10/06,05:20,2.020,3.507,3.935,3.515,3.475,1.345,1.922,2.162,�k�k��,6.5,�L
2014/10/06,05:30,2.023,3.517,3.938,3.523,3.472,1.348,1.923,2.167,�k�k��,8.9,�L
2014/10/06,05:40,2.035,3.540,3.948,3.540,3.487,1.353,1.928,2.167,�k,7.1,�L
2014/10/06,05:50,2.042,3.555,3.953,3.545,3.485,1.358,1.935,2.172,�k,8.0,�L
2014/10/06,06:00,2.040,3.542,3.935,3.538,3.465,1.355,1.933,2.173,�k�k��,6.5,�L
2014/10/06,06:10,2.032,3.513,3.912,3.520,3.433,1.350,1.925,2.172,�k�k��,7.4,�L
2014/10/06,06:20,2.025,3.512,3.893,3.522,3.407,1.350,1.925,2.168,�k�k��,7.7,�L
2014/10/06,06:30,2.033,3.537,3.907,3.537,3.413,1.352,1.928,2.172,�k,6.3,�L
2014/10/06,06:40,2.047,3.557,3.910,3.543,3.415,1.353,1.932,2.170,�k,6.5,�L
2014/10/06,06:50,2.052,3.558,3.910,3.540,3.413,1.358,1.932,2.175,�k,6.0,�L
2014/10/06,07:00,2.055,3.565,3.912,3.547,3.417,1.360,1.933,2.175,�k�k��,6.1,�L
2014/10/06,07:10,2.055,3.565,3.908,3.548,3.408,1.363,1.935,2.177,�k�k��,6.7,�L
2014/10/06,07:20,2.057,3.575,3.918,3.558,3.432,1.368,1.935,2.175,�k��,7.1,�L
2014/10/06,07:30,2.063,3.600,3.935,3.575,3.457,1.377,1.943,2.180,�k��,8.5,�L
2014/10/06,07:40,2.062,3.597,3.932,3.575,3.458,1.373,1.942,2.180,�k�k��,9.3,�L
2014/10/06,07:50,2.062,3.593,3.933,3.573,3.462,1.377,1.943,2.185,�k�k��,9.9,�L
2014/10/06,08:00,2.065,3.603,3.943,3.580,3.475,1.377,1.947,2.188,�k�k��,10.4,�L
2014/10/06,08:10,2.063,3.588,3.928,3.570,3.455,1.375,1.948,2.183,�k��,9.6,�L
2014/10/06,08:20,2.063,3.582,3.927,3.570,3.452,1.377,1.945,2.187,�k�k��,6.0,�L
2014/10/06,08:30,2.047,3.537,3.887,3.538,3.397,1.362,1.935,2.177,�k�k��,11.8,�L
2014/10/06,08:40,2.037,3.518,3.868,3.525,3.372,1.357,1.932,2.175,���k��,10.8,�L
2014/10/06,08:50,2.037,3.533,3.875,3.533,3.373,1.362,1.932,2.173,-,CALM,�L
2014/10/06,09:00,2.032,3.528,3.860,3.528,3.358,1.360,1.928,2.172,-,CALM,�L
2014/10/06,09:10,2.033,3.532,3.853,3.533,3.357,1.360,1.927,2.168,�k�k��,8.5,�L
2014/10/06,09:20,2.042,3.548,3.875,3.538,3.373,1.363,1.932,2.173,�k,12.4,�L
2014/10/06,09:30,2.042,3.540,3.857,3.532,3.350,1.357,1.927,2.167,�k�k��,9.3,�L
2014/10/06,09:40,2.027,3.488,3.808,3.495,3.275,1.342,1.913,2.162,�k��,5.7,�L
2014/10/06,09:50,2.027,3.513,3.812,3.507,3.280,1.347,1.912,2.160,�k�k��,10.4,�L
2014/10/06,10:00,2.017,3.497,3.780,3.488,3.243,1.338,1.907,2.153,�k,7.7,�L
2014/10/06,10:10,2.003,3.458,3.742,3.468,3.175,1.328,1.905,2.147,�k,10.7,�L
2014/10/06,10:20,2.008,3.465,3.730,3.467,3.165,1.328,1.900,2.147,�k,11.3,�L
2014/10/06,10:30,1.992,3.428,3.675,3.440,3.102,1.322,1.888,2.138,-,CALM,�L
2014/10/06,10:40,1.988,3.422,3.633,3.423,3.052,1.313,1.883,2.128,-,CALM,�L
2014/10/06,10:50,1.980,3.410,3.587,3.393,2.982,1.305,1.870,2.122,-,CALM,�L
2014/10/06,11:00,1.975,3.397,3.540,3.377,2.945,1.298,1.865,2.117,-,CALM,�L
2014/10/06,11:10,1.975,3.400,3.508,3.363,2.912,1.293,1.860,2.113,-,CALM,�L
2014/10/06,11:20,1.978,3.400,3.483,3.357,2.885,1.287,1.857,2.113,-,CALM,�L
2014/10/06,11:30,1.988,3.415,3.487,3.362,2.888,1.288,1.858,2.115,-,CALM,�L
2014/10/06,11:40,1.985,3.405,3.470,3.355,2.875,1.287,1.855,2.113,-,CALM,�L
2014/10/06,11:50,1.987,3.412,3.480,3.362,2.882,1.288,1.855,2.115,-,CALM,�L
2014/10/06,12:00,2.003,3.453,3.523,3.387,2.923,1.300,1.867,2.127,�k,20.4,�L
2014/10/06,12:10,2.022,3.490,3.575,3.417,2.970,1.308,1.878,2.138,�k�k��,21.4,�L
2014/10/06,12:20,2.040,3.527,3.633,3.453,3.030,1.320,1.888,2.143,�k�k��,14.1,�L
2014/10/06,12:30,2.045,3.552,3.673,3.473,3.082,1.325,1.897,2.152,�k,18.5,�L
2014/10/06,12:40,2.045,3.567,3.707,3.487,3.120,1.332,1.902,2.158,�k�k��,10.7,�L
2014/10/06,12:50,2.042,3.577,3.730,3.497,3.157,1.333,1.905,2.162,�k,15.6,�L
2014/10/06,13:00,2.048,3.578,3.750,3.502,3.193,1.338,1.907,2.163,�k�k��,14.9,�L
2014/10/06,13:10,2.047,3.588,3.772,3.512,3.222,1.343,1.912,2.168,�k�k��,14.1,�L
2014/10/06,13:20,2.050,3.595,3.792,3.517,3.250,1.347,1.915,2.170,�k�k��,14.8,�L
2014/10/06,13:30,2.053,3.597,3.807,3.527,3.275,1.348,1.918,2.175,�k��,12.3,�L
2014/10/06,13:40,2.048,3.593,3.812,3.522,3.288,1.352,1.920,2.172,�k�k��,15.9,�L
2014/10/06,13:50,2.048,3.593,3.820,3.528,3.310,1.355,1.925,2.173,�k��,13.0,�L
2014/10/06,14:00,2.050,3.597,3.833,3.540,3.327,1.358,1.927,2.177,�k��,15.6,�L
2014/10/06,14:10,2.047,3.607,3.850,3.545,3.350,1.362,1.932,2.180,�k��,15.1,�L
2014/10/06,14:20,2.052,3.613,3.868,3.552,3.370,1.367,1.937,2.178,�k��,17.7,��
2014/10/06,14:30,2.053,3.622,3.883,3.562,3.385,1.368,1.938,2.182,�k��,12.1,��
2014/10/06,14:40,2.058,3.630,3.895,3.567,3.408,1.375,1.943,2.182,�k�k��,13.8,��
2014/10/06,14:50,2.060,3.642,3.913,3.575,3.428,1.375,1.947,2.187,�k�k��,14.1,��
2014/10/06,15:00,2.065,3.647,3.923,3.582,3.443,1.375,1.948,2.187,�k�k��,13.7,��
2014/10/06,15:10,2.068,3.652,3.937,3.587,3.460,1.378,1.948,2.188,�k�k��,13.2,��
2014/10/06,15:20,2.068,3.652,3.948,3.593,3.472,1.378,1.952,2.187,�k�k��,9.4,��
2014/10/06,15:30,2.070,3.658,3.953,3.598,3.482,1.380,1.958,2.192,�k��,12.4,��
2014/10/06,15:40,2.067,3.662,3.960,3.597,3.495,1.380,1.958,2.192,�k��,12.9,��
2014/10/06,15:50,2.068,3.663,3.972,3.600,3.505,1.383,1.962,2.193,�k��,12.4,��
2014/10/06,16:00,2.068,3.663,3.975,3.607,3.515,1.385,1.963,2.197,���k��,11.3,��
2014/10/06,16:10,2.072,3.668,3.985,3.610,3.520,1.385,1.967,2.195,�k��,8.9,��
2014/10/06,16:20,2.070,3.670,3.983,3.615,3.530,1.383,1.967,2.197,�k��,9.9,��
2014/10/06,16:30,2.072,3.673,3.992,3.617,3.535,1.385,1.972,2.195,�k��,8.5,��
2014/10/06,16:40,2.073,3.672,3.998,3.623,3.542,1.385,1.972,2.197,�k��,8.9,��
2014/10/06,16:50,2.075,3.680,4.000,3.625,3.543,1.385,1.972,2.197,�k��,9.9,��
2014/10/06,17:00,2.073,3.678,4.005,3.625,3.553,1.388,1.970,2.197,�k��,7.1,��
2014/10/06,17:10,2.077,3.680,4.005,3.623,3.555,1.390,1.973,2.198,�k��,7.2,��
2014/10/06,17:20,2.075,3.680,4.007,3.630,3.558,1.388,1.975,2.198,�k��,6.3,��
2014/10/06,17:30,2.073,3.680,4.008,3.630,3.562,1.387,1.975,2.202,���k��,5.7,��
2014/10/06,17:40,2.073,3.683,4.013,3.633,3.568,1.390,1.977,2.202,�k��,5.6,��
2014/10/06,17:50,2.073,3.682,4.017,3.635,3.575,1.390,1.977,2.200,�k�k��,4.0,��
2014/10/06,18:00,2.077,3.685,4.013,3.632,3.577,1.392,1.978,2.202,�k�k��,3.5,��
2014/10/06,18:10,2.075,3.687,4.017,3.633,3.582,1.390,1.977,2.200,�k,3.4,��
2014/10/06,18:20,2.077,3.688,4.022,3.633,3.585,1.392,1.982,2.198,�k�k��,3.1,��
2014/10/06,18:30,2.077,3.687,4.022,3.637,3.590,1.393,1.978,2.202,�k,3.7,�L
2014/10/06,18:40,2.075,3.690,4.023,3.637,3.593,1.392,1.980,2.203,�k,5.2,��
2014/10/06,18:50,2.077,3.687,4.025,3.637,3.598,1.393,1.982,2.202,�k,5.4,��
2014/10/06,19:00,2.072,3.690,4.027,3.638,3.603,1.390,1.982,2.202,�k,5.4,��
2014/10/06,19:10,2.073,3.690,4.028,3.642,3.607,1.390,1.980,2.208,�k�k��,6.5,�L
2014/10/06,19:20,2.077,3.693,4.025,3.642,3.610,1.397,1.978,2.203,�k�k��,6.8,�L
2014/10/06,19:30,2.075,3.692,4.028,3.642,3.612,1.397,1.982,2.205,�k�k��,7.2,�L
2014/10/06,19:40,2.078,3.678,4.023,3.640,3.607,1.395,1.980,2.205,�k,7.7,�L
2014/10/06,19:50,2.078,3.677,4.020,3.637,3.605,1.397,1.980,2.203,�k,8.2,�L
2014/10/06,20:00,2.077,3.673,4.013,3.635,3.602,1.398,1.980,2.203,�k,9.1,�L
2014/10/06,20:10,2.077,3.670,4.007,3.633,3.597,1.397,1.977,2.202,�k,7.5,��
2014/10/06,20:20,2.075,3.673,4.012,3.630,3.602,1.395,1.978,2.202,�k,7.8,��
2014/10/06,20:30,2.075,3.672,4.012,3.630,3.603,1.398,1.978,2.198,�k,6.9,��
2014/10/06,20:40,2.077,3.670,4.017,3.630,3.602,1.393,1.977,2.200,�k�k��,6.9,��
2014/10/06,20:50,2.072,3.670,4.015,3.630,3.605,1.393,1.978,2.202,�k�k��,7.1,�L
2014/10/06,21:00,2.068,3.667,4.015,3.628,3.608,1.395,1.980,2.202,�k�k��,7.2,��
2014/10/06,21:10,2.068,3.670,4.015,3.637,3.607,1.392,1.978,2.202,�k�k��,7.4,�L
2014/10/06,21:20,2.070,3.673,4.013,3.632,3.612,1.392,1.975,2.202,�k�k��,6.8,�L
2014/10/06,21:30,2.063,3.672,4.010,3.628,3.613,1.393,1.978,2.202,�k,5.8,�L
2014/10/06,21:40,2.063,3.662,4.005,3.620,3.603,1.390,1.970,2.198,�k,5.1,�L
2014/10/06,21:50,2.063,3.657,3.997,3.613,3.590,1.388,1.963,2.193,�k�k��,4.7,�L
2014/10/06,22:00,2.063,3.660,3.997,3.610,3.592,1.387,1.967,2.195,�k,4.2,��
2014/10/06,22:10,2.062,3.660,4.003,3.615,3.600,1.388,1.965,2.193,�k,3.4,��
2014/10/06,22:20,2.058,3.655,4.002,3.615,3.603,1.388,1.967,2.195,�k,2.8,�L
2014/10/06,22:30,2.055,3.658,4.005,3.617,3.605,1.390,1.968,2.195,�k,2.8,��
2014/10/06,22:40,2.058,3.660,4.002,3.613,3.612,1.390,1.968,2.200,�k,2.6,�L
2014/10/06,22:50,2.057,3.667,4.003,3.612,3.612,1.390,1.967,2.198,�k,2.7,�L
2014/10/06,23:00,2.058,3.662,4.003,3.613,3.615,1.390,1.968,2.193,�k�k��,2.0,�L
2014/10/06,23:10,2.060,3.663,4.007,3.615,3.613,1.390,1.968,2.193,�k,2.5,�L
2014/10/06,23:20,2.058,3.663,4.008,3.618,3.618,1.390,1.968,2.195,�k�k��,3.0,�L
2014/10/06,23:30,2.055,3.663,4.008,3.613,3.622,1.392,1.968,2.197,�k,3.0,�L
2014/10/06,23:40,2.055,3.658,4.007,3.615,3.623,1.388,1.967,2.195,�k,3.3,�L
2014/10/06,23:50,2.057,3.655,4.002,3.617,3.623,1.392,1.968,2.195,�k�k��,2.9,�L
